WB8HRV Weather Reports


time (UTC)temp
C
wind
direction
speed
KPH
gust
KPH
rain 1hr
cm
rain 24hr
cm
rain mn
cm
humidity
%
barometer
mb
20260505072618 18 204 1.6 6.4 0.00 0.00 0.00 62 1006.0
20260505071616 18 218 1.6 9.7 0.00 0.00 0.00 62 1006.0
20260505070616 18 124 1.6 11.3 0.00 0.00 0.00 62 1006.1
20260505065615 18 147 1.6 17.7 0.00 0.00 0.00 62 1005.9
20260505065054 18 183 1.6 11.3 0.00 0.00 0.00 61 1005.9
20260505063617 18 150 1.6 6.4 0.00 0.00 0.00 61 1005.9
20260505062616 18 168 1.6 11.3 0.00 0.00 0.00 61 1006.0
20260505062057 18 263 1.6 11.3 0.00 0.00 0.00 61 1006.0
20260505060613 18 180 1.6 12.9 0.00 0.00 0.00 61 1005.8
20260505055613 19 178 1.6 16.1 0.00 0.00 0.00 60 1005.7
20260505054613 19 161 1.6 11.3 0.00 0.00 0.00 60 1005.5
20260505053612 19 108 3.2 16.1 0.00 0.00 0.00 59 1005.4
20260505053055 20 105 1.6 12.9 0.00 0.00 0.00 59 1005.3
20260505051614 20 166 3.2 24.1 0.00 0.00 0.00 59 1005.2
20260505050614 20 115 1.6 11.3 0.00 0.00 0.00 59 1005.5
20260505041613 20 155 1.6 8.0 0.00 0.00 0.00 60 1006.0
20260505040613 20 183 1.6 4.8 0.00 0.00 0.00 59 1006.0
20260505035614 20 152 1.6 9.7 0.00 0.00 0.00 59 1006.2
20260505034613 20 198 1.6 11.3 0.00 0.00 0.00 59 1006.1
20260505033612 20 190 1.6 9.7 0.00 0.00 0.00 59 1006.0
20260505032614 20 221 1.6 8.0 0.00 0.00 0.00 58 1006.0
20260505031613 20 163 1.6 9.7 0.00 0.00 0.00 59 1006.0
20260505030613 20 136 1.6 9.7 0.00 0.00 0.00 59 1005.9
20260505025615 20 186 1.6 17.7 0.00 0.00 0.00 58 1005.8
20260505024612 20 104 1.6 9.7 0.00 0.00 0.00 58 1005.6
20260505023612 20 115 1.6 11.3 0.00 0.00 0.00 58 1005.5
20260505022611 20 112 1.6 9.7 0.00 0.00 0.00 59 1005.5
20260505021610 21 130 1.6 12.9 0.00 0.00 0.00 58 1005.3
20260505020611 21 117 1.6 11.3 0.00 0.00 0.00 58 1005.2
20260505015608 21 133 1.6 11.3 0.00 0.00 0.00 58 1005.0
20260505014612 21 86 1.6 6.4 0.00 0.00 0.00 57 1005.0
20260505013606 21 138 1.6 9.7 0.00 0.00 0.00 57 1005.0
20260505012601 21 127 1.6 6.4 0.00 0.00 0.00 56 1004.9
20260505011600 21 189 1.6 6.4 0.00 0.00 0.00 56 1004.8
20260505010558 21 99 1.6 4.8 0.00 0.00 0.00 55 1004.8
20260505005558 22 129 1.6 9.7 0.00 0.00 0.00 54 1004.7
20260505004557 22 201 0.0 3.2 0.00 0.00 0.00 53 1004.7
20260505004528 22 172 1.6 12.9 0.00 0.00 0.00 52 1004.7
20260505002559 22 150 3.2 17.7 0.00 0.00 0.00 51 1004.7
20260505002516 23 180 1.6 17.7 0.00 0.00 0.00 50 1004.8
20260505001522 23 184 1.6 9.7 0.00 0.00 0.00 49 1004.9
20260504235554 23 213 1.6 9.7 0.00 0.00 0.00 49 1005.0
20260504234559 23 269 3.2 22.5 0.00 0.00 0.00 48 1005.2
20260504233554 23 183 6.4 24.1 0.00 0.00 0.00 47 1005.3
20260504232554 24 250 4.8 19.3 0.00 0.00 0.00 47 1005.3
20260504231554 24 237 3.2 27.4 0.00 0.00 0.00 46 1005.4
20260504231044 24 189 4.8 29.0 0.00 0.00 0.00 45 1005.5
20260504225555 24 227 3.2 16.1 0.00 0.00 0.00 46 1005.4
20260504224554 24 267 4.8 29.0 0.00 0.00 0.00 46 1005.5
20260504223555 24 226 4.8 25.7 0.00 0.00 0.00 47 1005.5
20260504222552 24 179 1.6 16.1 0.00 0.00 0.00 52 1005.6
20260504221552 24 161 1.6 11.3 0.00 0.00 0.00 51 1005.6
20260504220552 23 188 1.6 6.4 0.00 0.00 0.00 52 1005.4
20260504220515 23 232 1.6 14.5 0.00 0.00 0.00 51 1005.7
20260504214553 23 226 3.2 22.5 0.00 0.00 0.00 50 1006.0
20260504213553 23 189 3.2 11.3 0.00 0.00 0.00 49 1006.0
20260504212554 23 271 3.2 17.7 0.00 0.00 0.00 47 1006.1
20260504212032 24 259 3.2 19.3 0.00 0.00 0.00 48 1006.3
20260504211031 24 240 3.2 16.1 0.00 0.00 0.00 49 1006.4
20260504205552 23 259 6.4 20.9 0.00 0.00 0.00 51 1006.5
20260504204552 23 221 3.2 14.5 0.00 0.00 0.00 50 1006.6
20260504203938 23 256 3.2 14.5 0.00 0.00 0.00 52 1006.9
20260504203616 24 238 3.2 17.7 0.00 0.00 0.00 52 1006.7
20260504202027 23 261 3.2 19.3 0.00 0.00 0.00 51 1007.1
20260504200550 23 175 1.6 14.5 0.00 0.00 0.00 50 1007.0
20260504195551 23 249 3.2 12.9 0.00 0.00 0.00 52 1007.1
20260504195025 22 219 3.2 24.1 0.00 0.00 0.00 54 1007.6
20260504193551 22 147 1.6 16.1 0.00 0.00 0.00 54 1007.8
20260504192550 22 265 3.2 12.9 0.00 0.00 0.00 59 1008.0
20260504191550 22 170 1.6 12.9 0.00 0.00 0.00 58 1007.8
20260504191030 21 239 3.2 17.7 0.00 0.00 0.00 60 1008.1
20260504185551 21 258 3.2 12.9 0.00 0.00 0.00 61 1008.2
20260504184549 20 212 3.2 14.5 0.00 0.00 0.00 62 1008.4
20260504183548 20 206 4.8 27.4 0.00 0.00 0.00 61 1008.2
20260504182549 20 234 4.8 25.7 0.00 0.00 0.00 60 1008.2
20260504181549 20 240 3.2 17.7 0.00 0.00 0.00 59 1007.9
20260504180550 21 232 3.2 16.1 0.00 0.00 0.00 59 1007.9
20260504175548 20 214 4.8 24.1 0.00 0.00 0.00 59 1007.7
20260504174549 21 272 6.4 30.6 0.00 0.00 0.00 57 1007.5
20260504173544 21 141 4.8 19.3 0.00 0.00 0.00 58 1007.5
20260504172545 21 261 4.8 16.1 0.00 0.00 0.00 60 1007.8
20260504171544 20 240 3.2 16.1 0.00 0.00 0.00 61 1007.7
20260504170545 20 120 3.2 19.3 0.00 0.00 0.00 63 1007.2
20260504150544 17 219 3.2 16.1 0.00 0.00 0.00 66 1008.6
20260504140542 15 196 3.2 12.9 0.00 0.00 0.00 66 1008.6
20260504130535 13 170 1.6 11.3 0.00 0.00 0.00 70 1009.1
20260504110531 11 133 1.6 6.4 0.00 0.00 0.00 68 1009.0
20260504081525 11 140 1.6 6.4 0.00 0.00 0.00 64 1010.0
20260504080526 11 191 1.6 8.0 0.00 0.00 0.00 63 1010.1